National Weather Service United States Department of Commerce

Iowa Surface Observations

    
                        
071
ASUS43 KDMX 300306
RWRIA

WEATHER ROUNDUP FOR IOWA
NATIONAL WEATHER SERVICE DES MOINES IA
1000 PM CDT WED MAY 29 2024

NOTE: "FAIR" INDICATES FEW OR NO CLOUDS BELOW 12,000 FEET WITH NO
SIGNIFICANT WEATHER AND/OR OBSTRUCTIONS TO VISIBILITY.

* - THESE STATIONS ARE NOT NWS STATIONS...THUS NOT UNDER NWS
QUALITY CONTROL. THEY ALSO DO NOT REPORT WEATHER SUCH
AS PRECIPITATION OR FOG.

IAZ001>003-012>014-020>022-031>034-043>046-300400-
NORTHWEST IOWA

CITY SKY/WX TMP DP RH WIND PRES REMARKS
CARROLL * PTCLDY 64 46 52 SE8 30.11R TC 18
DENISON * CLEAR 64 48 55 SE9G15 30.11R TC 18
LE MARS * CLEAR N/A N/A N/A SE12 30.06R
MAURICE * PTCLDY 64 41 42 SE12 30.06R TC 18
SHELDON * CLEAR 64 43 45 SE9 30.08R TC 18
SIOUX CITY CLEAR 68 45 43 SE14 30.05R TC 20
SPENCER CLEAR 63 45 51 SE9 30.10R TC 17
STORM LAKE * CLEAR 64 43 45 SE12 30.11R TC 18
$$

IAZ055>058-069>071-079>083-090>094-300400-
SOUTHWEST IOWA

CITY SKY/WX TMP DP RH WIND PRES REMARKS
ATLANTIC * CLEAR 66 48 52 E8 30.10R TC 19
AUDUBON * MOCLDY 61 50 67 CALM 30.12R TC 16
CLARINDA * CLEAR 66 50 55 E5 30.12R TC 19
COUNCIL BLFS * CLEAR 68 52 56 SE9 30.05S TC 20
CRESTON * CLEAR 61 50 67 SE8 30.13R TC 16
HARLAN * CLEAR 66 46 48 SE9 30.10R TC 19
LAMONI CLEAR 62 50 64 E3 30.13S TC 17
RED OAK * CLEAR 68 50 52 E9 30.09S TC 20
SHENANDOAH * CLEAR 68 52 56 E9 30.07R TC 20
$$

IAZ047>049-059>061-072>074-084-300400-
CENTRAL IOWA

CITY SKY/WX TMP DP RH WIND PRES REMARKS
AMES CLEAR 60 49 66 E3 30.13S TC 16
ANKENY * CLEAR 61 50 67 CALM 30.14S TC 16
BOONE * CLEAR 63 50 63 SE6 30.12S TC 17
CHARITON * N/A 61 52 72 SE5 30.14R TC 16
DES MOINES CLEAR 68 47 46 SE10 30.14S TC 20
GRINNELL* CLEAR 65 50 58 E5 30.17S TC 18
KNOXVILLE * CLEAR 66 46 48 SE5 30.14S TC 19
MARSHALLTOWN CLEAR 63 49 60 E6 30.14S TC 17
NEWTON * CLEAR 64 46 52 SE8 30.14S TC 18
PELLA * CLEAR N/A N/A N/A SE3 30.15S
PERRY * CLEAR 63 48 58 E6 30.13R TC 17
$$

IAZ004>006-015-016-023>025-035-036-300400-
NORTH CENTRAL IOWA

CITY SKY/WX TMP DP RH WIND PRES REMARKS
ALGONA * CLEAR 63 48 59 SE7 30.11S TC 17
CLARION * CLEAR 64 48 55 SE9 30.13S TC 18
ESTHERVILLE CLEAR 60 45 57 SE8 30.11R TC 16
FORT DODGE * CLEAR 65 45 48 SE6 30.14R TC 18
MASON CITY CLEAR 62 49 62 SE8 30.15F TC 17
FOREST CITY * CLEAR 61 46 59 E5 30.14S TC 16
WEBSTER CITY * CLEAR 61 48 63 SE7 30.12R TC 16
IOWA FALLS * CLEAR 63 49 59 SE6 30.16S TC 17
$$

IAZ007>011-017>019-026>030-037>042-050>054-066-300400-
NORTHEAST IOWA

CITY SKY/WX TMP DP RH WIND PRES REMARKS
CEDAR RAPIDS CLEAR 59 49 69 E8 30.16R TC 15
CHARLES CITY * CLEAR 61 54 77 SE7 30.16S TC 16
CLINTON * CLEAR 62 49 62 NE5 30.19R TC 17
DECORAH * PTCLDY 61 48 63 E3 30.16S TC 16
DUBUQUE CLEAR 59 51 75 SE3 30.19R TC 15
MONTICELLO * CLEAR 61 52 72 CALM 30.17R TC 16
OELWEIN * CLEAR 61 52 72 E7 30.17S TC 16
WATERLOO CLEAR 59 51 75 E5 30.15S TC 15
$$

IAZ064-065-067-068-078-300400-
EAST CENTRAL IOWA

CITY SKY/WX TMP DP RH WIND PRES REMARKS
DAVENPORT CLEAR 61 47 59 NE5 30.20R TC 16
IOWA CITY CLEAR 66 48 52 E5 30.18R TC 19
MT. PLEASANT * CLEAR 63 46 55 SE3 30.17R TC 17
MUSCATINE * N/A 59 52 77 CALM 30.18R TC 15
QUAD CITIES CLEAR 58 52 80 CALM 30.17R TC 14
$$

IAZ062-063-075>077-085>089-095>099-300400-
SOUTHEAST IOWA

CITY SKY/WX TMP DP RH WIND PRES REMARKS
BURLINGTON CLEAR 60 50 69 CALM 30.16S TC 16
FAIRFIELD * CLEAR 61 45 55 E3 30.16R TC 16
FORT MADISON * CLEAR 61 50 67 NE1 30.16S TC 16
KEOKUK * MOCLDY 59 50 72 CALM 30.16R TC 15
OSKALOOSA * CLEAR 67 48 52 SE5 30.15S TC 19
OTTUMWA CLEAR 60 49 66 SE6 30.12F TC 16
WASHINGTON * PTCLDY 61 45 55 E5 30.15S TC 16
$$

ABBREVIATIONS USED IN REMARKS
TC - TEMPERATURES IN CELSIUS
WCI - WIND CHILL INDEX
HX - HEAT INDEX
VSB - VISIBILITY
$$




Road Conditions

Image Courtesy of the Iowa Environmental Mesonet

Midwest Surface Map

Midwest Surface Map

 

U.S. Surface Map

U.S. Surface Map

Iowa Weather Summary

    
                        
811
AWUS83 KDMX 290929
RWSDMX
IAZ004>007-015>017-023>028-033>039-044>050-057>062-070>075-081>086-
092>097-291330-

Weather Summary for Iowa
National Weather Service Des Moines IA
429 AM CDT Wed May 29 2024

Today:

Mostly clear skies could be found statewide overnight. Temperatures at
4 AM were in the 50s south and in the 40s north. Winds were light and
variable and will remain that way through the morning.

Afternoon highs will peak in the low to mid 70s with generally very
pleasant conditions. No rain is forecasted today and there will be
very few clouds in the sky.

Tonight and beyond:

Skies will remain mostly clear for tonight with lows around 50.
Clouds build in on Thursday ahead of rain that will arrive later that
night. Rain chances remain in the area through the weekend,
particularly on Friday and Sunday night. Rain chances continue into
early next week. Highs will rise back into the 80s by Saturday.

$$

Jimenez


River Summary

    
                        
811
SRUS43 KDMX 300338
RVADMX
IAC001-003-007-009-013-015-017-023-025-027-029-033-039-047-049-051-053-
063-069-073-075-077-079-081-083-091-099-109-117-121-123-125-127-135-147-
151-153-157-159-161-169-171-173-175-179-181-185-187-189-195-197-310345-

Hydrologic Summary
National Weather Service Des Moines IA
1037 PM CDT Wed May 29 2024

Hourly river stages. Time is in Central Time. For the latest river forecasts,
flood warnings and flood statements refer to weather.gov/desmoines.

Refer to the end of this product for an explanation of the columns.

Cur Obs Flood 6hr 24hr Obs
Location FS Stg Category Chg Chg Date/Time

...Mississippi River Basin...

.Wapsipinicon River Basin...

Wapsipinicon River
Tripoli 15.0 12.80 Non-Flood -0.11 -0.30 0529/2145

.Iowa River Basin...

West Main Drainage Ditch 1-2
Britt

Iowa River
Rowan 12.5 9.07 Non-Flood -0.17 -0.48 0529/2200
Steamboat Rock 11.0 8.17 Non-Flood -0.06 -0.37 0529/2200
Marshalltown 19.0 16.33 Non-Flood -0.23 -0.89 0529/2200
Tama Hwy E49 12.5 12.35 Non-Flood -0.10 -0.14 0529/2200
Tama US 63 20.0 18.12 Non-Flood -0.11 -0.12 0529/2200
Chelsea

South Fork Iowa River
Blairsburg 5.02 -0.01 -0.08 0529/2200
New Providence 5.44 -0.10 -0.53 0529/2145

Timber Creek
Marshalltown 14.0 6.28 Non-Flood -0.15 -0.66 0529/2200

Richland Creek
Haven 13.05 -0.07 -0.16 0529/2200

Stein Creek
Clutier 67.50 -0.01 -0.13 0529/2130

Salt Creek
Elberon 16.0 8.55 Non-Flood -0.04 -0.26 0529/2200

Walnut Creek
Hartwick 14.0 2.84 Non-Flood -0.05 -0.20 0529/2200

Deer Creek
Toledo 5.64 -0.05 -0.18 0529/2200

Deep River
Deep River 67.20 -0.02 -0.07 0529/2215

.Cedar River Basin...

Cedar River
Waverly 12.0 5.18 Non-Flood -0.05 -0.21 0529/2215
Janesville 13.0 4.73 Non-Flood -0.21 -0.98 0529/2145
Cedar Falls 89.0 87.18 Non-Flood -0.37 -1.24 0529/2145
Waterloo 13.0 10.21 Non-Flood -0.23 -0.71 0529/2200

West Fork Cedar River
Kesley
Kesley Hickory Ave--IFC 948.58 -0.20 -0.66 0529/2145
Finchford 17.0 12.26 Non-Flood -0.11 -0.41 0529/2145

Spring Creek (North Central Iowa)
Mason City US 65 81.67 -0.04 -0.18 0529/2145

Winnebago River
Mason City 10.0 7.44 Non-Flood -0.04 -0.23 0529/2130
Rockford

Clear Lake
Clear Lake 4.95 -0.01 -0.01 0529/2200

Willow Creek
Mason City US 18 Bus 87.20 -0.03 -0.26 0529/2145

Shell Rock River
Northwood
Nora Springs
Rockford Foothill Ave--IFC
Marble Rock 4.0
Marble Rock 290th St--IFC 950.79 -0.08 -0.39 0529/2145
Shell Rock 12.0 10.53 Non-Flood -0.07 -0.28 0529/2145

Beaver Creek (Northeast Iowa)
New Hartford 12.5 7.55 Non-Flood -0.33 -1.45 0529/2200

Black Hawk Creek
Hudson 14.0 9.15 Non-Flood -0.12 -0.59 0529/2145

Wolf Creek
Dysart 12.0 4.53 Non-Flood -0.09 -0.41 0529/2215

.Skunk River Basin...

Mud Lake Drainage Ditch 71 (North Central Iowa)
Jewell 81.40 -0.01 -0.08 0529/2215

Keigley Branch (Central Iowa)
Story City 83.57 -0.03 -0.14 0529/2130

South Skunk River
Randall Hwy R61--IFC 975.88 -0.04 -0.26 0529/2145
Ames Hwy E18 3.32 -0.05 -0.30 0529/2130
Ames McFarland Park 180th 3.29 -0.07 -0.35 0529/2200
Ames W Riverside Rd 12.5 4.71 Non-Flood -0.02 -0.24 0529/2200
Ames E 13th St--IFC 879.47 0.05 -0.31 0529/2145
Ames US 30 21.5 12.37 Non-Flood -0.08 -0.35 0529/2200
Colfax 18.0 10.62 Non-Flood -0.11 -0.51 0529/2145
Oskaloosa 24.5 16.39 Non-Flood -0.32 -1.38 0529/2130

Ioway Creek
Story City 120th St--IFC 971.25 0.04 -0.08 0529/2145
Ames Hwy E18
Gilbert 160th St--IFC 929.96 -0.02 -0.11 0529/2200
Ames Cameron School Rd 2.50 -0.05 -0.17 0529/2200
Ames Stange Rd--IFC 888.95 -0.09 -0.22 0529/2145
Ames Lincoln Way 10.0 2.34 Non-Flood -0.03 -0.10 0529/2200
Ames S Duff Ave--IFC 873.27 -0.07 -0.22 0529/2145

Indian Creek
Mingo 6.13 -0.10 -0.48 0529/2215

Middle Creek
Lacey 76.34 -0.04 -0.12 0529/2200

.Des Moines River Basin...

West Fork Des Moines River
Estherville 10.0 8.76 Non-Flood -0.04 -0.20 0529/2200
Emmetsburg 11.0 8.58 Non-Flood -0.09 -0.34 0529/2215
Humboldt 10.0 9.26 Non-Flood -0.10 -0.24 0529/2215

Pilot Creek
Rolfe 4.80 -0.07 -0.31 0529/2215

East Fork Des Moines River
Algona 17.0 14.43 Non-Flood -0.09 -0.32 0529/2215
Dakota City 20.0 13.25 Non-Flood -0.06 -0.44 0529/2200

Des Moines River
Fort Dodge 10.5 8.26 Non-Flood -0.09 -0.34 0529/2200
Stratford 19.0 13.62 Non-Flood -0.15 -0.58 0529/2200
Des Moines 2nd Ave 23.0 20.14 Non-Flood 0.00 -0.05 0529/2115
Des Moines SE 6th St 24.0 21.82 Non-Flood -0.14 -0.44 0529/2200
Swan 55.67 0.18 0.07 0529/2115
Tracy 14.0 10.00 Non-Flood -0.01 -0.04 0529/2115
Eddyville 63.0 58.93 Non-Flood -0.04 -0.06 0529/2115
Ottumwa 11.5 9.19 Non-Flood 0.02 0.06 0529/2220

Saylorville Reservoir
Pool 884.0 859.74 Non-Flood -0.11 -0.33 0529/2200
Tail 13.48 0.01 -0.02 0529/2200
Normal Pool 836.0

Red Rock Reservoir
Pool 780.0 754.49 Non-Flood -0.01 0.07 0529/2215
Tail 693.93 0.02 -0.03 0529/2215
Normal Pool 742.0

Lizard Creek
Fort Dodge 6.45 -0.04 -0.19 0529/2215

Boone River
Goldfield 11.95 -0.18 -0.72 0529/2215
Webster City 14.0 4.88 Non-Flood -0.10 -0.45 0529/2200

White Fox Creek
Clarion 84.05 -0.03 -0.12 0529/2145

Bluff Creek (Central Iowa)
Pilot Mound 80.80 0.00 -0.05 0529/2215

Big Creek Ponding Area
Polk City 36.41 0.05 0.27 0529/2215

Big Creek Lake
Polk City 20.18 -0.02 -0.06 0529/2215

Beaver Creek (Central Iowa)
Woodward 13.04 -0.05 -0.24 0529/2215
Grimes 14.0 5.60 Non-Flood -0.10 -0.35 0529/2215

Fourmile Creek
Ankeny US 69
Ankeny NE 47th St--IFC 907.62 -0.02 -0.17 0529/2145
Ankeny NE 86th Ave 11.0 2.36 Non-Flood -0.03 -0.13 0529/2115
Altoona NE 54th Ave--IFC 823.93 0.00 -0.17 0529/2145
Altoona I-80
Des Moines Easton Blvd 12.5 4.39 Non-Flood -0.03 -0.10 0529/2130
Pleasant Hill Vandalia Rd- 776.55 -0.08 -0.40 0529/2145

North River
Norwalk Hwy R57 22.0 8.07 Non-Flood -0.09 -0.35 0529/2215

Middle River
Indianola 23.0 8.82 Non-Flood -0.05 -0.26 0529/2215

South River
Ackworth 29.0 6.64 Non-Flood -0.08 -0.33 0529/2215

White Breast Creek
Melcher-Dallas 23.0 6.72 Non-Flood -0.03 -0.11 0529/2215

English Creek
Knoxville 21.0 8.90 Non-Flood -0.04 -0.24 0529/2115

Cedar Creek
Bussey 25.0 5.20 Non-Flood -0.03 -0.17 0529/2115

Bear Creek
Ottumwa US 34 79.59 -0.02 -0.09 0529/2145

.Raccoon River Basin...

North Raccoon River
Sac City 10.99 -0.06 -0.46 0529/2215
Lanesboro 12.09 -0.09 -0.41 0529/2215
Jefferson 19.0 8.13 Non-Flood -0.12 -0.70 0529/2215
Perry 15.0 9.29 Non-Flood -0.12 -0.62 0529/2215

Black Hawk Lake
Lake View 7.81 -0.01 -0.01 0529/2215

Brushy Fork Creek (Western Iowa)
Templeton 67.55 0.00 -0.03 0529/2200

Middle Raccoon River Tributary
Carroll 15.71 -0.02 -0.04 0529/2215

Middle Raccoon River
Bayard 11.56 -0.06 -0.24 0529/2215
Panora 11.0 5.41 Non-Flood 0.01 -0.22 0529/2215

Lake Panorama
Panora 45.53 -0.04 0.03 0529/2215

South Raccoon River
Redfield 20.0 4.11 Non-Flood 0.00 -0.33 0529/2145

Raccoon River
Van Meter Hwy R16 17.0 7.64 Non-Flood -0.17 -0.77 0529/2200
West Des Moines 31.72 -0.25 -0.75 0529/2145
Des Moines IA 28 36.0 25.61 Non-Flood -0.21 -0.72 0529/2115
Des Moines Fleur Dr 12.0 7.86 Non-Flood -0.27 -0.78 0529/2145

Walnut Creek (Central Iowa)
Waukee 156th St 9.0
Urbandale 142nd St
Clive NW 128th St--IFC 862.48 -0.04 -0.10 0529/2145
Clive I-80/35 9.0 3.41 Non-Flood 0.00 0.00 0529/2230
Clive NW 100th St--IFC 840.21 0.02 -0.05 0529/2145
Des Moines 63rd St 14.0 3.55 Non-Flood -0.01 -0.06 0529/2145

Little Walnut Creek (Central Iowa)
Clive 156th St--IFC 897.40 -0.02 -0.01 0529/2145

North Walnut Creek (Central Iowa)
Urbandale 92nd Dr 3.14 0.33 -0.06 0529/2227
Urbandale Hickman Rd--IFC 834.13 -0.01 -0.02 0529/2145
Windsor Heights College Dr 825.48 0.02 -0.01 0529/2145

Jordan Creek
West Des Moines

Buttrick Creek
Grand Junction 13.0 6.78 Non-Flood -0.02 -0.16 0529/2215

...Missouri River Basin...

.Nishnabotna River Basin...

East Nishnabotna River
Atlantic 19.0 4.14 Non-Flood -0.03 -0.17 0529/2200

.Chariton River Basin...

West Nodaway River
Massena IA 148 67.03 -0.03 -0.05 0529/2215

East Fork 102 River
Bedford 24.0 11.58 Non-Flood -0.07 -0.23 0529/2145

Thompson River
Davis City 12.0 2.46 Non-Flood -0.05 -0.28 0529/2200

Chariton River
Chariton 19.5 5.05 Non-Flood -0.06 -0.26 0529/2145
Moulton 36.0 24.21 Non-Flood 0.00 2.96 0529/2145

South Fork Chariton River
Promise City 25.0 3.42 Non-Flood -0.02 -0.17 0529/2145

Rathbun Reservoir
Pool 926.0 907.06 Non-Flood -0.05 -0.19 0529/2145
Tail 7.80 0.00 0.06 0529/2200
Normal Pool 904.0

Cooper Creek (South Central Iowa)
Centerville 8.14 -0.03 -0.12 0529/2130

Key: FS=Flood stage (feet)
Cur Stg=Current stage (feet)
Obs Flood Category=Observed stage flood category (if applicable)--may be
different than forecast flood category
6hr Chg=6-hour change (feet)
24hr Chg=24-hour change (feet)
Obs Time=Date/time observation was taken (local time)

This product is computer generated and is not monitored directly for quality
control. Data sources include the U.S. Geological Survey, U.S. Army Corps of
Engineers, Iowa Flood Center, state agencies and the National Weather
Service.

$$


Central Iowa Observed Snowfall

The following information (mostly PDF files) is to be considered preliminary and unofficial.  Official or certified surface observing information can be obtained from the National Climatic Data Center at https://www.ncdc.noaa.gov.

In the pdf files below, look for the snowfall column, not the snow-depth.

 

Des Moines Airport NWS Office in Johnston Waterloo
(current month updated daily)  (generally updated Monday - Friday) (current month updated daily)
 April 2018  April 2018  April 2018
 March 2018  March 2018  March 2018
 February 2018  February 2018  February 2018
 January 2018  January 2018  January 2018
 December 2017  December 2017  December 2017
 November 2017  November 2017  November 2017
 March 2017  March 2017  March 2017
 February 2017  February 2017  February 2017
 January 2017  January 2017  January 2017
 December 2016  December 2016  December 2016
 November 2016  November 2016  November 2016
 October 2016  October 2016  October 2016
 March 2016  March 2016  March 2016
 February 2016  February 2016  February 2016
 January 2016  January 2016  January 2016
 December 2015  December 2015  December 2015
 November 2015  November 2015  November 2015
 March 2015  March 2015  March 2015
 February 2015  February 2015  February 2015
 January 2015  January 2015  January 2015
 December 2014  December 2014  December 2014
 November 2014  November 2014  November 2014
     
Additional Past Weather Information for Central Iowa can be found by clicking here.

CoCoRAHS Rainfall Reports

    
                        
274
SXUS53 KDMX 291425
LCODMX

COCORAHS PRECIPITATION SUMMARY
NATIONAL WEATHER SERVICE DES MOINES IA
901 AM CDT WED MAY 29 2024

COCORAHS PRECIPITATION REPORTS FOR THE PREVIOUS 24 HOURS
ENDING AROUND 7 AM LOCAL TIME
THESE REPORTS ARE CONSIDERED SUPPLEMENTAL AND UNOFFICIAL

.B DMX 0529 C DH07/PP/SF/SD/SW
:
:
:CENTRAL IOWA
:
: SNOW SNOW WATER
: PCPN FALL DEPTH EQUIV
:
IA-BH-03 : CEDAR FALLS 0.4 WNW : 0.25 / 0.0 / 0.0 / 0.00
IA-PC-08 : FONDA 4.5 NNW : 0.22 / MM / MM / MM
IA-CG-14 : ROCKWELL 0.7 NNW : 0.18 / MM / MM / MM
IA-CH-07 : LYTTON 4.0 NE : 0.15 / MM / MM / MM
IA-WB-15 : CLARE 5.2 WNW : 0.13 / MM / MM / MM
IA-CG-07 : SWALEDALE 0.0 WNW : 0.12 / MM / MM / MM
IA-WB-17 : FORT DODGE 1.7 NNW : 0.11 / MM / MM / MM
IA-PA-05 : WEST BEND 5.4 W : 0.10 / MM / MM / MM
IA-BH-10 : CEDAR FALLS 0.6 N : 0.08 / MM / MM / MM
IA-SR-17 : AMES 0.9 ENE : 0.07 / MM / MM / MM
IA-WB-03 : FORT DODGE 1.6 ENE : 0.07 / MM / MM / MM
IA-BH-06 : WATERLOO 1.9 SSE : 0.07 / MM / MM / MM
IA-HM-01 : WEBSTER CITY 0.5 NW : 0.06 / MM / MM / MM
IA-HM-04 : WEBSTER CITY 0.8 SSW : 0.06 / MM / MM / MM
IA-KS-04 : ALGONA 0.7 SE : 0.05 / MM / MM / MM
IA-SR-19 : GILBERT 0.2 W : 0.05 / 0.0 / MM / MM
IA-SR-51 : GILBERT 0.5 SSE : 0.05 / MM / MM / MM
IA-BH-29 : LA PORTE CITY 5.1 NNW : 0.05 / MM / MM / MM
IA-SR-50 : AMES 10.0 NE : 0.04 / MM / MM / MM
IA-PK-139 : ANKENY 2.3 NE : 0.03 / MM / MM / MM
IA-GY-07 : CONRAD 5.2 NW : 0.03 / MM / MM / MM
IA-SR-49 : STORY CITY 0.4 NW : 0.03 / MM / MM / MM
IA-PK-97 : ANKENY 1.5 NNE : 0.02 / 0.0 / 0.0 / MM
IA-HD-05 : ELDORA 1.2 ENE : 0.02 / MM / MM / MM
IA-WP-13 : OTTUMWA 2.2 ENE : 0.02 / MM / MM / MM
IA-DL-40 : PERRY 1.1 NNW : 0.02 / MM / MM / MM
IA-DL-22 : WAUKEE 1.2 ENE : 0.02 / 0.0 / MM / MM
IA-DL-26 : DALLAS CENTER 4.1 ENE : T / MM / MM / MM
IA-PK-131 : DES MOINES 3.7 NW : T / MM / MM / MM
IA-PK-121 : PLEASANT HILL 3.2 E : T / MM / MM / MM
IA-PK-115 : POLK CITY 1.0 N : T / MM / MM / MM
IA-SC-07 : SAC CITY 0.6 SSW : T / MM / MM / MM
IA-WY-10 : ALLERTON 0.8 S : 0.00 / 0.0 / MM / MM
IA-WY-07 : ALLERTON 5.1 E : 0.00 / 0.0 / MM / MM
IA-CS-07 : ANITA 0.6 S : 0.00 / 0.0 / MM / MM
IA-DV-07 : BLOOMFIELD 4.2 WNW : 0.00 / 0.0 / MM / MM
IA-DV-10 : BLOOMFIELD 8.4 NNE : 0.00 / 0.0 / MM / MM
IA-DV-03 : BLOOMFIELD 8.6 SSW : 0.00 / 0.0 / MM / MM
IA-WR-27 : CARLISLE 4.5 SSE : 0.00 / 0.0 / MM / MM
IA-LC-12 : CHARITON 2.0 WSW : 0.00 / 0.0 / MM / MM
IA-AD-02 : CRESTON 8.3 WNW : 0.00 / 0.0 / MM / MM
IA-UN-05 : CROMWELL 0.1 S : 0.00 / 0.0 / MM / MM
IA-DL-31 : DALLAS CENTER 1.5 E : 0.00 / 0.0 / MM / MM
IA-PK-03 : DES MOINES 4.5 WNW : 0.00 / 0.0 / MM / MM
IA-PK-88 : DES MOINES 5.4 WNW : 0.00 / 0.0 / MM / MM
IA-DV-14 : DRAKESVILLE 4.7 WNW : 0.00 / 0.0 / MM / MM
IA-WR-05 : HARTFORD 1.0 E : 0.00 / 0.0 / 0.0 / MM
IA-WR-07 : INDIANOLA 0.8 SSW : 0.00 / 0.0 / MM / MM
IA-PK-21 : JOHNSTON 3.7 NNW : 0.00 / 0.0 / MM / MM
IA-DC-08 : LINEVILLE 3.8 W : 0.00 / 0.0 / MM / MM
IA-PW-06 : MALCOM 7.7 NNW : 0.00 / 0.0 / MM / MM
IA-CR-07 : MANNING 0.2 ESE : 0.00 / 0.0 / MM / MM
IA-DV-11 : MILTON 4.8 SSW : 0.00 / 0.0 / MM / MM
IA-TY-02 : NEW MARKET 4.7 N : 0.00 / 0.0 / MM / MM
IA-MH-08 : NEW SHARON 6.3 SSE : 0.00 / 0.0 / MM / MM
IA-AP-09 : NUMA 1.7 W : 0.00 / 0.0 / MM / MM
IA-CL-09 : OSCEOLA 2.5 N : 0.00 / 0.0 / MM / MM
IA-CL-02 : OSCEOLA 2.5 WSW : 0.00 / 0.0 / MM / MM
IA-WY-03 : SEYMOUR 1.7 W : 0.00 / 0.0 / MM / MM
IA-DL-33 : WAUKEE 1.6 N : 0.00 / 0.0 / MM / MM
IA-DC-04 : WELDON 1.7 W : 0.00 / 0.0 / MM / MM
.END

$$